N7BDR Weather Reports


Display with metric or nautical units.
time (UTC)temp
F
wind
direction
speed
MPH
gust
MPH
rain 1hr
in
rain 24hr
in
rain mn
in
humidity
%
barometer
mb
20260507130322 54 221 6.0 17.0 0.00 0.00 0.00 34 1014.8
20260507125825 54 193 5.0 15.0 0.00 0.00 0.00 34 1014.9
20260507125308 54 230 5.0 15.0 0.00 0.00 0.00 35 1014.9
20260507124818 54 175 5.0 15.0 0.00 0.00 0.00 35 1014.9
20260507123701 54 258 5.0 20.0 0.00 0.00 0.00 36 1015.0
20260507123155 54 218 5.0 20.0 0.00 0.00 0.00 36 1014.9
20260507122705 54 199 5.0 20.0 0.00 0.00 0.00 37 1015.0
20260507122210 53 234 5.0 20.0 0.00 0.00 0.00 37 1014.8
20260507121704 53 249 5.0 15.0 0.00 0.00 0.00 39 1014.9
20260507121149 53 253 5.0 16.0 0.00 0.00 0.00 41 1015.0
20260507120027 53 263 5.0 16.0 0.00 0.00 0.00 40 1014.7
20260507115528 53 268 5.0 16.0 0.00 0.00 0.00 38 1014.7
20260507113126 54 238 6.0 14.0 0.00 0.00 0.00 36 1015.0
20260507112626 54 148 5.0 13.0 0.00 0.00 0.00 35 1015.0
20260507112120 54 148 5.0 13.0 0.00 0.00 0.00 34 1015.2
20260507111624 54 267 4.0 13.0 0.00 0.00 0.00 34 1015.3
20260507111122 54 157 4.0 11.0 0.00 0.00 0.00 34 1015.3
20260507110618 54 198 4.0 17.0 0.00 0.00 0.00 35 1015.3
20260507110122 54 194 5.0 17.0 0.00 0.00 0.00 35 1015.3
20260507105613 54 232 5.0 17.0 0.00 0.00 0.00 35 1015.3
20260507105055 54 251 6.0 17.0 0.00 0.00 0.00 35 1015.3
20260507104544 54 168 5.0 15.0 0.00 0.00 0.00 35 1015.3
20260507104028 54 177 4.0 15.0 0.00 0.00 0.00 35 1015.3
20260507102922 54 177 4.0 13.0 0.00 0.00 0.00 35 1015.3
20260507102418 55 220 4.0 17.0 0.00 0.00 0.00 35 1015.4
20260507101908 55 237 4.0 17.0 0.00 0.00 0.00 35 1015.4
20260507101411 55 193 5.0 17.0 0.00 0.00 0.00 35 1015.5
20260507100910 55 260 5.0 17.0 0.00 0.00 0.00 35 1015.5
20260507100357 55 135 6.0 15.0 0.00 0.00 0.00 35 1015.4
20260507095840 55 268 6.0 15.0 0.00 0.00 0.00 35 1015.5
20260507095337 55 156 5.0 14.0 0.00 0.00 0.00 36 1015.5
20260507094827 55 166 6.0 13.0 0.00 0.00 0.00 36 1015.6
20260507094313 55 182 6.0 14.0 0.00 0.00 0.00 37 1015.7
20260507093813 55 171 6.0 14.0 0.00 0.00 0.00 37 1015.8
20260507093255 54 246 6.0 14.0 0.00 0.00 0.00 37 1015.9
20260507092118 54 203 5.0 13.0 0.00 0.00 0.00 37 1016.1
20260507091626 55 264 5.0 13.0 0.00 0.00 0.00 37 1016.1
20260507090440 55 216 4.0 13.0 0.00 0.00 0.00 36 1016.2
20260507085923 55 256 4.0 13.0 0.00 0.00 0.00 35 1016.2
20260507084755 55 204 5.0 11.0 0.00 0.01 0.00 35 1016.4
20260507084238 54 255 4.0 11.0 0.00 0.02 0.00 35 1016.4
20260507083724 55 201 3.0 11.0 0.00 0.04 0.00 36 1016.4
20260507083230 55 206 4.0 11.0 0.00 0.06 0.00 36 1016.4
20260507082730 55 212 4.0 14.0 0.00 0.08 0.00 36 1016.5
20260507082238 55 180 4.0 14.0 0.00 0.15 0.00 36 1016.5
20260507081729 55 241 4.0 14.0 0.00 0.16 0.00 37 1016.7
20260507081233 55 166 4.0 14.0 0.00 0.16 0.00 37 1016.6
20260507080729 55 184 4.0 12.0 0.00 0.16 0.00 38 1016.7
20260507080217 55 165 4.0 11.0 0.00 0.16 0.00 39 1016.7
20260507075046 55 177 5.0 12.0 0.00 0.16 0.00 41 1016.8
20260507074536 54 182 4.0 13.0 0.00 0.16 0.00 41 1016.8
20260507074027 54 175 3.0 14.0 0.00 0.16 0.00 40 1016.8
20260507073521 54 169 3.0 14.0 0.00 0.16 0.00 39 1016.8
20260507073009 55 174 4.0 14.0 0.00 0.16 0.00 38 1016.8
20260507072504 55 251 4.0 14.0 0.00 0.16 0.00 38 1016.9
20260507071947 55 245 4.0 12.0 0.00 0.16 0.00 37 1017.0
20260507071452 55 162 4.0 12.0 0.00 0.16 0.00 37 1017.0
20260507070949 54 251 3.0 11.0 0.00 0.16 0.00 36 1017.0
20260507070456 54 230 2.0 8.0 0.00 0.16 0.00 36 1017.1
20260507065955 54 253 1.0 8.0 0.00 0.16 0.00 35 1017.1
20260507065457 54 259 1.0 7.0 0.00 0.16 0.00 36 1017.1
20260507064945 54 247 1.0 7.0 0.00 0.16 0.00 37 1017.1
20260507063836 53 235 0.0 6.0 0.00 0.16 0.00 40 1017.2
20260507063344 53 241 1.0 6.0 0.00 0.16 0.00 40 1017.3
20260507062851 53 225 0.0 6.0 0.00 0.16 0.00 41 1017.3
20260507062342 52 246 0.0 3.0 0.00 0.16 0.00 41 1017.3
20260507061215 51 252 0.0 0.0 0.00 0.16 0.00 41 1017.4
20260507060658 51 241 0.0 0.0 0.00 0.16 0.00 42 1017.3
20260507060140 51 251 0.0 0.0 0.00 0.16 0.00 42 1017.3
20260507055639 51 251 0.0 0.0 0.00 0.16 0.16 41 1017.4
20260507055148 51 250 0.0 0.0 0.00 0.16 0.16 41 1017.3
20260507054642 52 245 0.0 0.0 0.00 0.16 0.16 40 1017.3
20260507054134 52 234 0.0 1.0 0.00 0.16 0.16 39 1017.2
20260507053617 52 206 1.0 4.0 0.00 0.16 0.16 39 1017.2
20260507053126 52 206 1.0 3.0 0.00 0.16 0.16 40 1017.2
20260507052624 51 224 0.0 3.0 0.00 0.16 0.16 41 1017.3
20260507052114 51 61 0.0 1.0 0.00 0.16 0.16 42 1017.3
20260507051622 51 61 0.0 0.0 0.00 0.16 0.16 43 1017.3
20260507051108 51 61 0.0 0.0 0.00 0.16 0.16 43 1017.2
20260507050604 51 303 0.0 0.0 0.00 0.16 0.16 43 1017.3
20260507044816 52 303 0.0 0.0 0.00 0.16 0.16 39 1017.5
20260507044320 52 303 0.0 0.0 0.00 0.16 0.16 39 1017.5
20260507043820 52 303 0.0 0.0 0.00 0.16 0.16 39 1017.5
20260507043322 52 303 0.0 0.0 0.00 0.16 0.16 38 1017.3
20260507042823 52 303 0.0 0.0 0.00 0.16 0.16 38 1017.3
20260507042322 53 303 0.0 0.0 0.00 0.16 0.16 37 1017.3
20260507041824 53 303 0.0 0.0 0.00 0.16 0.16 37 1017.3
20260507041310 54 304 0.0 0.0 0.00 0.16 0.16 35 1017.3
20260507040819 54 270 0.0 0.0 0.00 0.16 0.16 35 1017.2
20260507040300 54 270 0.0 0.0 0.00 0.16 0.16 35 1017.3
20260507035804 54 270 0.0 0.0 0.00 0.16 0.16 35 1017.3
20260507035307 54 261 0.0 1.0 0.00 0.16 0.16 34 1017.3
20260507034128 55 271 0.0 0.0 0.00 0.16 0.16 35 1017.3
20260507033631 55 271 0.0 0.0 0.00 0.16 0.16 34 1017.3
20260507033120 55 271 0.0 0.0 0.00 0.16 0.16 34 1017.2
20260507032628 55 268 0.0 0.0 0.00 0.16 0.16 33 1017.1
20260507032115 55 263 0.0 0.0 0.00 0.16 0.16 33 1017.1
20260507031557 55 256 0.0 0.0 0.00 0.16 0.16 33 1016.9
20260507031046 55 256 0.0 0.0 0.00 0.16 0.16 32 1016.8
20260507025915 56 267 0.0 0.0 0.00 0.16 0.16 33 1016.7
20260507025418 56 322 0.0 0.0 0.00 0.16 0.16 31 1016.7
20260507024919 56 322 0.0 0.0 0.00 0.16 0.16 32 1016.7
20260507024403 57 322 0.0 0.0 0.00 0.16 0.16 31 1016.7
20260507023904 57 322 0.0 0.0 0.00 0.16 0.16 29 1016.8
20260507023345 58 322 0.0 0.0 0.00 0.16 0.16 28 1016.7
20260507022831 58 322 0.0 0.0 0.00 0.16 0.16 28 1016.8
20260507022338 59 322 0.0 0.0 0.00 0.16 0.16 28 1016.8
20260507021843 60 322 0.0 0.0 0.00 0.16 0.16 25 1016.8
20260507021350 60 322 0.0 0.0 0.00 0.16 0.16 24 1016.8
20260507020831 61 322 0.0 0.0 0.00 0.16 0.16 24 1016.8
20260507020329 61 335 0.0 0.0 0.00 0.16 0.16 24 1016.7
20260507015147 61 340 0.0 2.0 0.00 0.16 0.16 22 1016.8
20260507014645 61 337 0.0 1.0 0.00 0.16 0.16 24 1016.9
20260507014137 62 346 0.0 1.0 0.00 0.16 0.16 22 1016.9
20260507013636 62 328 0.0 0.0 0.00 0.16 0.16 23 1016.9
20260507013133 62 304 0.0 0.0 0.00 0.16 0.16 23 1017.0
20260507012619 62 303 0.0 0.0 0.00 0.16 0.16 23 1016.9
20260507012117 62 304 0.0 0.0 0.00 0.16 0.16 23 1016.9
20260507010445 63 310 0.0 0.0 0.00 0.16 0.16 22 1017.0
20260507005310 63 324 0.0 4.0 0.00 0.16 0.16 23 1017.1
20260507004752 63 290 0.0 0.0 0.00 0.16 0.16 23 1017.0
20260507004250 63 277 0.0 3.0 0.00 0.16 0.16 23 1017.1
20260507003735 63 314 0.0 2.0 0.00 0.16 0.16 23 1017.0
20260507003244 63 279 0.0 0.0 0.00 0.16 0.16 23 1017.1
20260507002735 63 257 1.0 7.0 0.00 0.16 0.16 22 1017.1
20260507002242 63 261 2.0 7.0 0.00 0.16 0.16 22 1017.1
20260507001746 63 330 2.0 7.0 0.00 0.16 0.16 22 1017.0
20260507001240 63 308 2.0 6.0 0.00 0.16 0.16 23 1016.9
20260507000723 63 354 2.0 6.0 0.00 0.16 0.16 23 1016.9
20260507000229 63 334 2.0 6.0 0.00 0.16 0.16 22 1016.8
20260506235107 63 331 1.0 8.0 0.00 0.16 0.16 22 1016.9
20260506233945 63 341 2.0 10.0 0.00 0.16 0.16 21 1017.0
20260506233426 63 62 2.0 10.0 0.00 0.16 0.16 22 1017.0
20260506232907 63 322 3.0 10.0 0.00 0.16 0.16 22 1017.0
20260506232352 63 318 3.0 9.0 0.00 0.16 0.16 23 1016.9
20260506231850 64 327 2.0 9.0 0.00 0.16 0.16 24 1016.9
20260506230707 64 305 2.0 7.0 0.00 0.16 0.16 22 1017.0
20260506230202 65 336 1.0 7.0 0.00 0.16 0.16 21 1017.0
20260506225704 65 307 1.0 7.0 0.00 0.16 0.16 23 1017.1
20260506224528 64 272 1.0 12.0 0.00 0.16 0.16 23 1017.1
20260506224034 63 261 2.0 12.0 0.00 0.16 0.16 23 1017.1
20260506223524 63 310 2.0 12.0 0.00 0.16 0.16 23 1017.1
20260506223027 64 300 2.0 10.0 0.00 0.16 0.16 23 1017.3
20260506222532 64 297 3.0 16.0 0.00 0.16 0.16 24 1017.3
20260506222035 63 308 3.0 16.0 0.00 0.16 0.16 23 1017.4
20260506215621 63 263 3.0 12.0 0.00 0.17 0.16 23 1017.5
20260506215129 63 308 3.0 13.0 0.00 0.17 0.16 24 1017.6
20260506214630 62 305 4.0 13.0 0.00 0.17 0.16 24 1017.6
20260506213508 62 313 1.0 14.0 0.00 0.17 0.16 24 1017.8
20260506213014 62 301 3.0 14.0 0.00 0.17 0.16 25 1017.9
20260506212520 62 272 4.0 14.0 0.00 0.17 0.16 25 1018.0
20260506212028 62 344 2.0 10.0 0.00 0.17 0.16 26 1018.0
20260506211531 62 330 2.0 10.0 0.00 0.17 0.16 24 1018.1
20260506211040 61 253 2.0 10.0 0.00 0.17 0.16 26 1018.0
20260506205905 61 341 2.0 9.0 0.00 0.17 0.16 26 1017.9
20260506205352 62 350 1.0 9.0 0.00 0.17 0.16 25 1018.1
20260506204234 61 339 1.0 11.0 0.00 0.17 0.16 26 1018.0
20260506203721 61 303 2.0 11.0 0.00 0.17 0.16 27 1018.1
20260506203224 61 340 1.0 11.0 0.00 0.17 0.16 27 1018.1
20260506202723 61 287 2.0 10.0 0.00 0.17 0.16 27 1018.1
20260506202215 60 296 2.0 10.0 0.00 0.17 0.16 29 1018.1
20260506201703 60 20 1.0 9.0 0.00 0.17 0.16 26 1018.1
20260506201154 60 320 2.0 9.0 0.00 0.17 0.16 28 1018.2
20260506200636 60 307 2.0 9.0 0.00 0.17 0.16 26 1018.2
20260506200127 61 258 2.0 9.0 0.00 0.17 0.16 27 1018.2
20260506195029 59 310 1.0 11.0 0.00 0.17 0.16 28 1018.2
20260506193908 59 332 2.0 11.0 0.00 0.17 0.16 28 1018.0
20260506192755 59 320 4.0 14.0 0.00 0.17 0.16 30 1018.1
20260506191601 59 357 5.0 17.0 0.00 0.17 0.16 25 1018.0
20260506191052 58 344 5.0 17.0 0.00 0.17 0.16 25 1018.0
20260506190543 58 356 6.0 17.0 0.00 0.17 0.16 24 1018.1
20260506190036 58 321 6.0 17.0 0.00 0.17 0.16 24 1018.1
20260506185517 58 329 5.0 13.0 0.00 0.17 0.16 25 1018.0
20260506185001 57 324 4.0 13.0 0.00 0.17 0.16 26 1018.1
20260506183852 57 349 5.0 13.0 0.00 0.17 0.16 26 1018.3
20260506183359 57 322 3.0 10.0 0.00 0.17 0.16 25 1018.4
20260506182901 57 341 2.0 9.0 0.00 0.17 0.16 28 1018.3
20260506182350 56 335 4.0 9.0 0.00 0.17 0.16 28 1018.4
20260506181224 56 343 3.0 9.0 0.00 0.17 0.16 30 1018.3
20260506180732 56 350 4.0 9.0 0.00 0.17 0.16 30 1018.4
20260506180224 56 323 5.0 14.0 0.00 0.17 0.16 28 1018.4
20260506175730 55 315 5.0 14.0 0.00 0.17 0.16 27 1018.3
20260506175236 55 21 5.0 14.0 0.00 0.17 0.16 26 1018.3
20260506174735 55 73 5.0 14.0 0.00 0.17 0.16 23 1018.3
20260506174239 55 334 4.0 13.0 0.00 0.17 0.16 25 1018.2
20260506173729 55 329 5.0 13.0 0.00 0.17 0.16 26 1018.3
20260506173216 55 346 4.0 13.0 0.00 0.17 0.16 29 1018.2
20260506172717 55 70 3.0 11.0 0.00 0.17 0.16 29 1018.1
20260506172220 54 319 4.0 11.0 0.00 0.17 0.16 29 1018.0
20260506171721 54 324 4.0 13.0 0.00 0.17 0.16 30 1018.0
20260506171209 54 337 4.0 13.0 0.00 0.17 0.16 30 1018.0
20260506170714 54 341 4.0 13.0 0.00 0.17 0.16 30 1018.0
20260506170201 54 336 4.0 13.0 0.00 0.17 0.16 33 1017.8
20260506165654 54 358 4.0 10.0 0.00 0.17 0.16 31 1017.8
20260506165154 54 336 3.0 10.0 0.00 0.17 0.16 32 1017.6
20260506164638 54 336 4.0 9.0 0.00 0.17 0.16 34 1017.7
20260506164126 54 339 4.0 9.0 0.00 0.17 0.16 30 1017.5
20260506163626 54 77 4.0 9.0 0.00 0.17 0.16 30 1017.4
20260506163110 53 343 4.0 10.0 0.00 0.17 0.16 34 1017.4
20260506162618 53 338 5.0 10.0 0.00 0.17 0.16 34 1017.3
20260506161437 53 346 5.0 11.0 0.00 0.17 0.16 34 1017.1
20260506160921 53 343 5.0 11.0 0.00 0.17 0.16 33 1017.0
20260506160408 53 14 5.0 11.0 0.00 0.17 0.16 33 1017.0
20260506155901 53 321 5.0 10.0 0.00 0.17 0.16 32 1016.9
20260506155411 52 45 5.0 10.0 0.00 0.17 0.16 39 1016.9
20260506154904 53 358 3.0 10.0 0.00 0.17 0.16 39 1016.7
20260506154354 52 339 3.0 12.0 0.00 0.17 0.16 39 1016.6
20260506153855 52 324 4.0 12.0 0.00 0.17 0.16 38 1016.6
20260506153346 51 326 5.0 12.0 0.00 0.17 0.16 38 1016.5
20260506152836 52 350 5.0 12.0 0.00 0.17 0.16 40 1016.5
20260506152321 51 335 5.0 10.0 0.00 0.17 0.16 39 1016.5
20260506151815 52 20 4.0 12.0 0.00 0.17 0.16 40 1016.4
20260506151302 52 352 5.0 12.0 0.00 0.17 0.16 40 1016.4
20260506150118 51 348 5.0 12.0 0.00 0.17 0.16 38 1016.2
20260506145604 52 343 3.0 9.0 0.00 0.17 0.16 38 1016.1
20260506145111 52 315 3.0 8.0 0.00 0.17 0.16 46 1015.8
20260506144612 52 341 3.0 8.0 0.00 0.17 0.16 45 1015.9
20260506144100 51 337 3.0 7.0 0.00 0.17 0.16 49 1015.9
20260506143547 51 327 4.0 7.0 0.00 0.17 0.16 49 1015.9
20260506143046 51 329 3.0 7.0 0.00 0.17 0.16 48 1015.7
20260506142531 51 324 2.0 6.0 0.00 0.17 0.16 48 1015.8
20260506142036 51 330 1.0 4.0 0.00 0.17 0.16 51 1015.6
20260506141522 50 334 1.0 4.0 0.00 0.17 0.16 49 1015.5
20260506141024 50 322 0.0 4.0 0.00 0.17 0.16 51 1015.4
20260506140527 50 334 0.0 0.0 0.00 0.17 0.16 54 1015.5
20260506134731 48 334 0.0 0.0 0.00 0.17 0.16 57 1015.4
20260506133619 46 328 0.0 0.0 0.00 0.17 0.16 65 1015.3
20260506133127 45 328 0.0 0.0 0.00 0.17 0.16 68 1015.2
20260506132626 44 328 0.0 0.0 0.00 0.17 0.16 71 1015.1
20260506131452 42 290 0.0 0.0 0.00 0.17 0.16 75 1014.7
20260506130936 42 294 0.0 0.0 0.00 0.17 0.16 75 1014.5